Location: Asheville, NC
(35.6000°N, 82.5500°W)
Time: 05:19:24
(UTC-04:00)

CUTE-I - Pass Details

Date: 09 January 2018
Orbit: 811 x 825 km, 98.7° (Epoch: 22 April)

Event Time Altitude Azimuth Distance (km) Brightness Sun altitude
Rises 06:09:05 0° 24° (NNE) 3,335 ? -18.1°
Reaches altitude 10° 06:11:40 10° 34° (NE) 2,400 ? -17.6°
Maximum altitude 06:16:24 33° 98° (E) 1,347 ? -16.7°
Drops below altitude 10° 06:21:07 10° 161° (SSE) 2,392 ? -15.8°
Sets 06:23:40 0° 170° (S) 3,322 ? -15.3°
